FW7241 Weather Reports


time (UTC)temp
F
wind
direction
speed
knots
gust
knots
rain 1hr
in
rain 24hr
in
rain mn
in
humidity
%
barometer
mb
20260505224113 54 252 0.0 0.9 0.00 0.13 0.00 85 1009.2
20260505223112 54 142 0.0 0.9 0.00 0.13 0.00 85 1009.3
20260505222112 54 131 0.0 2.6 0.00 0.13 0.00 86 1009.3
20260505221112 54 97 0.0 0.9 0.00 0.13 0.00 86 1009.4
20260505220112 54 237 0.0 0.9 0.00 0.13 0.00 86 1009.4
20260505215112 54 239 0.0 0.9 0.00 0.13 0.13 86 1009.4
20260505214112 54 176 0.0 1.7 0.00 0.13 0.13 86 1009.3
20260505213112 54 264 0.0 0.9 0.00 0.13 0.13 86 1009.3
20260505212112 54 236 0.0 0.0 0.00 0.13 0.13 86 1009.4
20260505211112 55 167 0.0 1.7 0.00 0.13 0.13 86 1009.5
20260505210111 55 124 0.0 1.7 0.00 0.13 0.13 86 1009.4
20260505205111 55 145 0.0 2.6 0.00 0.13 0.13 86 1009.5
20260505204112 56 162 0.0 0.9 0.00 0.13 0.13 86 1009.5
20260505203111 56 233 0.0 3.5 0.00 0.13 0.13 86 1009.5
20260505202111 56 218 0.0 0.9 0.00 0.13 0.13 86 1009.3
20260505200111 56 129 0.0 3.5 0.00 0.13 0.13 88 1009.2
20260505195111 56 221 0.0 0.9 0.00 0.13 0.13 88 1009.2
20260505194111 56 277 0.0 2.6 0.00 0.13 0.13 87 1009.1
20260505193111 57 240 0.0 1.7 0.00 0.13 0.13 87 1009.0
20260505192111 57 216 0.0 1.7 0.00 0.13 0.13 85 1008.9
20260505191110 57 184 0.0 1.7 0.00 0.13 0.13 84 1008.8
20260505190110 58 108 0.9 3.5 0.00 0.13 0.13 84 1008.8
20260505185110 58 160 0.0 3.5 0.01 0.13 0.13 84 1008.7
20260505184110 58 141 0.9 4.3 0.01 0.13 0.13 83 1008.5
20260505183110 59 217 0.0 3.5 0.01 0.13 0.13 84 1008.4
20260505182110 59 137 0.9 3.5 0.01 0.13 0.13 84 1008.4
20260505181110 60 129 0.9 5.2 0.01 0.13 0.13 84 1008.5
20260505180110 61 231 1.7 7.8 0.01 0.13 0.13 82 1008.5
20260505175110 62 203 1.7 5.2 0.00 0.13 0.13 79 1008.3
20260505173110 63 231 0.9 4.3 0.00 0.13 0.13 75 1008.2
20260505172110 64 265 0.9 5.2 0.00 0.13 0.13 73 1008.1
20260505171110 64 268 2.6 7.8 0.00 0.13 0.13 70 1008.1
20260505165109 66 240 1.7 5.2 0.00 0.14 0.13 67 1008.2
20260505163109 64 109 1.7 5.2 0.00 0.14 0.13 71 1008.2
20260505162109 63 153 0.9 2.6 0.00 0.14 0.13 76 1008.1
20260505161109 63 264 1.7 5.2 0.00 0.14 0.13 76 1008.1
20260505160109 63 121 1.7 4.3 0.00 0.14 0.13 77 1008.1
20260505153114 61 229 2.6 7.8 0.02 0.15 0.13 84 1008.2
20260505152113 58 193 0.9 5.2 0.11 0.15 0.13 91 1008.2
20260505151113 58 240 0.0 3.5 0.12 0.15 0.13 91 1008.2
20260505150114 57 209 0.9 5.2 0.13 0.15 0.13 90 1008.2
20260505140113 66 297 0.0 1.7 0.00 0.02 0.00 70 1007.7
20260505130112 64 62 0.0 3.5 0.00 0.02 0.00 74 1008.3
20260505124112 65 55 0.9 3.5 0.00 0.02 0.00 72 1008.4
20260505121112 62 235 0.9 2.6 0.00 0.02 0.00 77 1008.7
20260505120112 62 247 0.0 1.7 0.00 0.02 0.00 81 1008.7
20260505114111 61 223 0.0 1.7 0.00 0.02 0.00 82 1008.9
20260505113111 61 255 0.9 2.6 0.00 0.02 0.00 80 1009.0
20260505112111 61 233 0.9 1.7 0.00 0.02 0.00 80 1009.1
20260505111111 61 299 0.9 2.6 0.00 0.02 0.00 79 1009.2
20260505110111 61 208 0.0 0.9 0.00 0.02 0.00 80 1009.2
20260505102111 60 279 0.0 1.7 0.00 0.02 0.00 83 1009.4
20260505100111 60 330 0.0 0.9 0.00 0.02 0.00 83 1009.3
20260505095111 60 323 0.0 1.7 0.00 0.02 0.00 84 1009.3
20260505094110 60 40 0.0 0.0 0.00 0.02 0.00 83 1009.3
20260505093110 60 42 0.0 1.7 0.00 0.02 0.00 82 1009.2
20260505092110 60 315 0.0 1.7 0.00 0.02 0.00 84 1009.2
20260505091110 59 11 0.9 1.7 0.00 0.02 0.00 86 1009.4
20260505090110 59 46 0.9 1.7 0.00 0.02 0.00 87 1009.6
20260505083110 60 356 0.0 0.9 0.00 0.02 0.00 86 1009.7
20260505082110 60 52 0.0 0.9 0.00 0.02 0.00 85 1009.8
20260505081110 59 60 0.0 0.9 0.00 0.02 0.00 85 1009.8
20260505080109 59 30 0.0 0.9 0.00 0.02 0.00 86 1009.9
20260505075109 59 3 0.0 0.9 0.00 0.02 0.00 86 1009.9
20260505074109 59 55 0.0 0.9 0.00 0.02 0.00 86 1010.0
20260505073109 59 18 0.0 0.9 0.00 0.02 0.00 89 1010.0
20260505071109 56 250 0.0 0.0 0.00 0.02 0.00 91 1010.1
20260505070109 56 250 0.0 1.7 0.00 0.02 0.00 91 1010.2
20260505064109 55 135 0.0 0.9 0.00 0.02 0.00 93 1010.3
20260505063109 55 246 0.9 1.7 0.00 0.02 0.00 93 1010.4
20260505061108 55 146 0.0 0.9 0.00 0.02 0.00 93 1010.5
20260505060108 54 259 0.0 0.9 0.00 0.02 0.00 93 1010.5
20260505055108 54 186 0.0 0.0 0.00 0.02 0.00 93 1010.5
20260505054108 54 244 0.0 0.9 0.00 0.02 0.00 94 1010.5
20260505053108 54 157 0.0 1.7 0.00 0.02 0.00 93 1010.5
20260505052113 54 145 0.0 0.9 0.00 0.02 0.00 94 1010.4
20260505051113 54 217 0.0 0.9 0.00 0.02 0.00 94 1010.4
20260505050113 53 226 0.0 0.9 0.00 0.02 0.00 94 1010.4
20260505041112 53 124 0.0 0.0 0.00 0.02 0.00 92 1010.4
20260505040112 53 124 0.0 0.0 0.00 0.02 0.00 92 1010.4
20260505035112 53 300 0.0 0.0 0.00 0.02 0.00 92 1010.4
20260505033112 53 300 0.0 0.0 0.00 0.02 0.00 93 1010.2
20260505032112 53 300 0.0 0.0 0.00 0.02 0.00 92 1010.3
20260505031112 53 300 0.0 0.0 0.00 0.02 0.00 92 1010.4
20260505030112 53 301 0.9 2.6 0.00 0.02 0.00 92 1010.5
20260505025112 53 98 0.9 1.7 0.00 0.02 0.00 93 1010.5
20260505024111 53 139 0.9 1.7 0.00 0.02 0.00 93 1010.6
20260505023111 53 79 0.0 0.9 0.00 0.02 0.00 93 1010.8
20260505022111 53 117 0.0 0.9 0.00 0.02 0.00 93 1010.9
20260505021111 52 117 0.0 0.9 0.00 0.02 0.00 93 1011.0
20260505020111 52 117 0.0 0.0 0.00 0.02 0.00 93 1011.1
20260505015111 53 117 0.0 0.0 0.00 0.02 0.00 93 1011.0
20260505014111 53 117 0.0 0.9 0.00 0.02 0.00 93 1011.1
20260505012111 53 241 0.0 0.0 0.00 0.02 0.00 93 1011.5
20260505010110 53 241 0.0 0.0 0.00 0.02 0.00 92 1011.6
20260505005110 53 146 0.0 0.9 0.00 0.02 0.00 91 1011.7
20260505004110 54 146 0.0 0.0 0.00 0.02 0.00 91 1011.8
20260505002110 54 148 0.0 1.7 0.00 0.02 0.00 91 1011.8
20260505001110 54 140 0.0 0.9 0.00 0.02 0.00 90 1012.0
20260505000110 55 91 0.0 0.9 0.00 0.02 0.00 91 1012.1
20260504235110 55 245 0.0 0.0 0.00 0.02 0.00 91 1012.2
20260504234110 55 248 0.0 0.0 0.00 0.02 0.00 92 1012.3
20260504233110 55 259 0.0 0.9 0.00 0.02 0.00 92 1012.5
20260504232110 55 103 0.0 0.0 0.00 0.02 0.00 92 1012.4
20260504231109 55 103 0.0 0.0 0.00 0.02 0.00 92 1012.5
20260504230109 55 103 0.0 0.0 0.00 0.02 0.00 92 1012.6
20260504225109 55 103 0.0 0.0 0.00 0.02 0.00 93 1012.7